Home > Weather > Elmshorn > Past weeks

Flag for Germany Weather for the Past 2 Weeks in Elmshorn, Schleswig-Holstein, Germany

Now
59 °F

Sunny.


Feels Like: 60 °F
Forecast: 43 / 54 °F
Wind: 3 mph from North

Location: Hamburg-Fuhlsbuettel

Current Time: May 2, 2016 at 11:16:13 AM

Latest Report: May 2, 2016 at 10:20 AM


Visibility: 10 mi

Pressure: 30.27 "Hg

Humidity: 51%

Dew Point: 41 °F

Location of ElmshornLocation

Historic Weather in Elmshorn — Graph

°F

Elmshorn Temperature Yesterday

Maximum temperature yesterday: 57 °F (at 2:50 PM)
Minimum temperature yesterday: 36 °F (at 12:20 AM)
Average temperature yesterday: 47 °F

High & Low Weather Summary for the Past Weeks

 TemperatureHumidityPressure
High57 °F (May 1, 2:50 PM)100% (Apr 21, 4:20 AM)30.42 "Hg (Apr 21, 4:20 AM)
Low32 °F (Apr 21, 4:20 AM)41% (Apr 29, 2:50 PM)29.39 "Hg (Apr 26, 3:20 AM)
Average43 °F79%29.96 "Hg
* Reported Apr 17 9:20 AM — May 2 9:20 AM, Elmshorn, Weather by CustomWeather, © 2016

Note: Actual official high and low records may vary slightly from our data, if they occured in-between our weather recording intervals... More about our weather records

Advertising

Elmshorn Weather History for the Previous 24 Hours

Scroll right to see more
 ConditionsComfort  
Time TempWeatherWind HumidityBarometerVisibility
9:20 AM
Mon, May 2
54 °FPassing clouds.5 mph63%30.27 "HgN/A
8:20 AM48 °FSunny.2 mph76%30.30 "Hg10 mi
7:20 AM43 °FSunny.3 mph87%30.30 "Hg10 mi
6:50 AM39 °FSunny.6 mph93%30.30 "Hg10 mi
6:20 AM37 °FFog.5 mph100%30.30 "HgN/A
5:50 AM37 °FFog.No wind93%30.30 "HgN/A
5:20 AM37 °FFog.2 mph93%30.30 "HgN/A
4:50 AM37 °FClear.3 mph100%30.30 "Hg10 mi
4:20 AM36 °FClear.2 mph100%30.30 "Hg10 mi
3:50 AM39 °FClear.1 mph93%30.30 "Hg10 mi
3:20 AM39 °FClear.3 mph93%30.30 "Hg10 mi
2:50 AM37 °FClear.1 mph100%30.33 "Hg10 mi
2:20 AM41 °FClear.1 mph87%30.33 "Hg10 mi
1:50 AM43 °FClear.2 mph87%30.33 "Hg10 mi
1:20 AM41 °FClear.No wind93%30.33 "Hg10 mi
12:50 AM41 °FClear.No wind87%30.33 "Hg10 mi
12:20 AM43 °FClear.3 mph87%30.33 "Hg10 mi
11:50 PM
Sun, May 1
43 °FPassing clouds.3 mph87%30.33 "HgN/A
11:20 PM46 °FClear.3 mph71%30.33 "Hg10 mi
10:50 PM46 °FClear.3 mph71%30.33 "Hg10 mi
10:20 PM48 °FClear.5 mph66%30.33 "Hg10 mi
9:50 PM50 °FSunny.5 mph67%30.33 "Hg10 mi
9:20 PM52 °FSunny.3 mph62%30.33 "Hg10 mi
8:50 PM52 °FPassing clouds.6 mph62%30.33 "HgN/A
8:20 PM54 °FSunny.7 mph63%30.33 "Hg10 mi
7:50 PM55 °FPassing clouds.6 mph59%30.33 "HgN/A
7:20 PM55 °FPassing clouds.6 mph63%30.30 "HgN/A
6:50 PM57 °FPassing clouds.6 mph55%30.30 "HgN/A
6:20 PM57 °FPassing clouds.8 mph59%30.30 "HgN/A
5:50 PM55 °FPassing clouds.7 mph63%30.30 "HgN/A
5:20 PM57 °FScattered clouds.9 mph63%30.30 "HgN/A
4:50 PM57 °FScattered clouds.8 mph59%30.30 "HgN/A
4:20 PM57 °FScattered clouds.8 mph59%30.30 "HgN/A
3:50 PM57 °FScattered clouds.8 mph59%30.30 "HgN/A
3:20 PM57 °FScattered clouds.8 mph59%30.30 "HgN/A
2:50 PM57 °FPassing clouds.7 mph63%30.30 "HgN/A
2:20 PM55 °FPassing clouds.8 mph63%30.30 "HgN/A
1:50 PM55 °FPassing clouds.9 mph63%30.30 "HgN/A
1:20 PM55 °FPassing clouds.10 mph63%30.30 "HgN/A
12:50 PM54 °FPassing clouds.8 mph67%30.30 "HgN/A
12:20 PM52 °FPassing clouds.8 mph72%30.30 "HgN/A
11:50 AM50 °FScattered clouds.8 mph76%30.30 "HgN/A
11:20 AM48 °FPartly sunny.8 mph76%30.30 "HgN/A
Weather by CustomWeather, © 2016

See weather overviewHow to use our weather pages